GORIZONT 25 1 21922U 92017A 08128.64611078 .00000103 00000-0 10000-3 0 9771 2 21922 10.6753 46.3658 0026582 286.3213 157.2970 0.99850121 58896 GORIZONT 26 1 22041U 92043A 08129.07010625 -.00000285 00000-0 10000-3 0 6681 2 22041 10.5146 47.7002 0029992 90.9175 269.3122 0.99246762 57855 GORIZONT 27 1 22245U 92082A 08129.78103581 -.00000123 00000-0 10000-3 0 3332 2 22245 10.4194 49.0413 0015026 211.0892 148.7107 1.00144318 60897 GORIZONT 28 1 22880U 93069A 08130.24173550 -.00000374 00000-0 10000-3 0 8691 2 22880 9.9175 52.4648 0001603 346.4198 32.4399 1.00279365 53222 GORIZONT 29 1 22907U 93072A 08125.60460253 -.00000218 00000-0 10000-3 0 5423 2 22907 9.8783 52.6227 0013810 196.8723 162.9796 1.00158577 52933 GORIZONT 30 1 23108U 94030A 08127.84894464 -.00000039 00000-0 10000-3 0 3761 2 23108 9.7193 54.0004 0001849 168.6397 191.2392 1.00385000 51156 GORIZONT 31 1 23775U 96005A 08129.94641650 .00000112 00000-0 10000-3 0 6736 2 23775 8.6287 59.9276 0019954 58.0122 302.0388 0.99890645 44991 GORIZONT 32 1 23880U 96034A 08130.09648816 -.00000123 00000-0 10000-3 0 9314 2 23880 8.4860 61.1953 0000659 296.1403 250.7394 1.00272192 43785 GORIZONT 33 1 26372U 00029A 08130.44368956 -.00000293 00000-0 10000-3 0 3384 2 26372 5.6922 70.3899 0003086 298.4405 158.4872 1.00241777 29129